Regional Weather Roundup
Issued by NWS

Home | Current Version | Previous Version | Text Only | Print | Product List | Glossary Off
Versions: 1 2 3 4 5 6 7 8 9 10 11 12 13 14 15 16 17 18 19 20 21 22 23 24 25 26 27 28 29 30 31 32 33 34 35 36 37 38 39 40 41 42 43 44 45 46 47 48 49 50

000
ASUS43 KIND 250309
RWRIN

WEATHER ROUNDUP FOR INDIANA
NATIONAL WEATHER SERVICE INDIANAPOLIS IN
1000 PM EST WED DEC 24 2014

NOTE: "FAIR" INDICATES FEW OR NO CLOUDS BELOW 12,000 FEET WITH NO
SIGNIFICANT WEATHER AND/OR OBSTRUCTIONS TO VISIBILITY.

* - STATION DOES NOT REPORT WEATHER SUCH AS PRECIPITATION OR FOG.

+ - STATION NOT QUALITY CONTROLLED BY THE NATIONAL WEATHER SERVICE.
    USE DATA WITH CAUTION...ESPECIALLY DEWPOINT AND RELATIVE
    HUMIDITY OBSERVATIONS.

INZ001>003-010>013-019-020-250400-
NORTHWEST INDIANA

CITY           SKY/WX    TMP DP  RH WIND       PRES   REMARKS
GARY /AIRPORT/ CLOUDY    38  32  79 W10       29.58R
KNOX *+        CLOUDY    36  32  85 W13       29.57S
LA PORTE +     CLOUDY    38  37  98 W12       29.56S
MICHIGAN CITY+ CLOUDY    36  34  93 SW8       29.56R
MONTICELLO +   CLOUDY    36  33  92 W15G22    29.62R
RENSSELAER +   CLOUDY    36  36 100 W15       29.62R
VALPARAISO     CLOUDY    36  33  89 W14       29.58R

$$

LMZ046-743>745-250400-
SOUTHERN LAKE MICHIGAN

STATION/POSITION TIME  TEMP WIND        PRES
                       AIR  DIR/SP/G
                 (UTC) (F)  (DEG/KT/KT) (MB)
MICHIGAN CITY    0300   37  220/ 19/ 22   N/A

$$

INZ004-005-014>016-021>024-250400-
NORTH CENTRAL INDIANA

CITY           SKY/WX    TMP DP  RH WIND       PRES   REMARKS
GOSHEN         CLOUDY    36  34  92 SW16      29.54R
LOGANSPORT +   CLOUDY    36  32  87 W14G20    29.62R
PERU/GRISSOM   CLOUDY    36  36 100 W15G22    29.61R
ROCHESTER +    CLOUDY    37  37 100 W10G21    29.59S
SOUTH BEND     CLOUDY    37  35  92 W13       29.55R
WARSAW +       CLOUDY    34  34 100 W12       29.56R WCI  25

$$

INZ006>009-017-018-025>027-250400-
NORTHEAST INDIANA

CITY           SKY/WX    TMP DP  RH WIND       PRES   REMARKS
ANGOLA *+      CLOUDY    34  34 100 W12       29.51R WCI  25
AUBURN +       CLOUDY    36  32  87 SW9G18    29.56R
FORT WAYNE     CLOUDY    37  33  85 W20       29.59R
HUNTINGTON +   CLOUDY    36  34  94 W10G20    29.59R

$$

INZ028-029-035-036-043>045-051>053-250400-
WEST CENTRAL INDIANA

CITY           SKY/WX    TMP DP  RH WIND       PRES   REMARKS
CRAWFORDSVL +  CLOUDY    34  30  86 SW15      29.67R WCI  24
GREENCASTLE +  CLOUDY    36  32  87 W13G20    29.69R
LAFAYETTE      LGT RAIN  35  33  92 W15G25    29.64R WCI  25
TERRE HAUTE    CLOUDY    37  33  85 W13       29.72R

$$

INZ030>032-037>040-046>048-054>057-064-065-250400-
CENTRAL INDIANA

CITY           SKY/WX    TMP DP  RH WIND       PRES   REMARKS
CP ATTERBURY + LGT RAIN  37  34  87 MISG      29.71R
FRANKFORT +    CLOUDY    37  37 100 SW17      29.66R
INDIANAPOLIS   CLOUDY    35  33  92 W16       29.68R WCI  25
-EAGLE CREEK   CLOUDY    36  34  92 SW7       29.67R
KOKOMO *+      CLOUDY    37  32  81 W15       29.63R
MARION +       CLOUDY    35  34  96 W16       29.63R WCI  26
MT COMFORT *+  CLOUDY    37  37 100 W15       29.67R
SHELBYVILLE    LGT RAIN  39  34  82 W15       29.68R
ZIONSVILLE +   CLOUDY    37  32  84 W13G20    29.66R

$$

INZ033-034-041-042-049-050-058-059-250400-
EAST CENTRAL INDIANA

CITY           SKY/WX    TMP DP  RH WIND       PRES   REMARKS
MUNCIE         LGT RAIN  37  34  89 W16G23    29.63R

$$

INZ060-061-067>069-081>083-085>088-250400-
SOUTHWEST INDIANA

CITY           SKY/WX    TMP DP  RH WIND       PRES   REMARKS
EVANSVILLE     LGT RAIN  40  36  86 W10       29.82R
HUNTINGBURG *+ CLOUDY    39  34  81 W12       29.80R
WASHINGTON +   CLOUDY    38  33  82 W10G17    29.77R

$$

INZ062-063-066-070>080-084-089>092-250400-
SOUTH CENTRAL AND SOUTHEAST INDIANA

CITY           SKY/WX    TMP DP  RH WIND       PRES   REMARKS
BLOOMINGTON    LGT RAIN  37  35  92 W9        29.72R

$$



USA.gov is the U.S. government's official web portal to all federal, state and local government web resources and services.